<?xml version="1.0" encoding="UTF-8"?>
<gpx
version="1.1"
creator="Kashmir3D 9.310 - http://www.kashmir3d.com"
xmlns:xsi="http://www.w3.org/2001/XMLSchema-instance"
xmlns="http://www.topografix.com/GPX/1/1"
xmlns:kashmir3d="http://www.kashmir3d.com/namespace/kashmir3d"
xsi:schemaLocation="http://www.topografix.com/GPX/1/1 http://www.topografix.com/GPX/1/1/gpx.xsd
	http://www.kashmir3d.com/namespace/kashmir3d http://www.kashmir3d.com/namespace/kashmir3d.xsd">
<trk>
 <name>景信山</name>
 <number>1</number>
 <extensions>
 <kashmir3d:line_color>0000ff</kashmir3d:line_color>
 <kashmir3d:line_size>3</kashmir3d:line_size>
 <kashmir3d:line_style>1</kashmir3d:line_style>
 <kashmir3d:icon>901001</kashmir3d:icon>
 </extensions>
<trkseg>
<trkpt lat="35.639830" lon="139.229851">
 <ele>298.9</ele>
 <time>2020-03-24T14:59:32Z</time>
</trkpt>
<trkpt lat="35.639805" lon="139.229680">
 <ele>297.7</ele>
 <time>2020-03-24T14:59:32Z</time>
</trkpt>
<trkpt lat="35.639873" lon="139.229379">
 <ele>299.8</ele>
 <time>2020-03-24T14:59:32Z</time>
</trkpt>
<trkpt lat="35.639925" lon="139.229143">
 <ele>301</ele>
 <time>2020-03-24T14:59:32Z</time>
</trkpt>
<trkpt lat="35.640036" lon="139.228854">
 <ele>304.1</ele>
 <time>2020-03-24T14:59:33Z</time>
</trkpt>
<trkpt lat="35.640096" lon="139.228575">
 <ele>306.4</ele>
 <time>2020-03-24T14:59:33Z</time>
</trkpt>
<trkpt lat="35.640139" lon="139.228317">
 <ele>309.3</ele>
 <time>2020-03-24T14:59:33Z</time>
</trkpt>
<trkpt lat="35.640174" lon="139.228156">
 <ele>309.9</ele>
 <time>2020-03-24T14:59:33Z</time>
</trkpt>
<trkpt lat="35.640199" lon="139.228027">
 <ele>310.5</ele>
 <time>2020-03-24T14:59:33Z</time>
</trkpt>
<trkpt lat="35.640131" lon="139.227759">
 <ele>312.1</ele>
 <time>2020-03-24T14:59:33Z</time>
</trkpt>
<trkpt lat="35.640045" lon="139.227416">
 <ele>315</ele>
 <time>2020-03-24T14:59:33Z</time>
</trkpt>
<trkpt lat="35.640011" lon="139.227212">
 <ele>316.3</ele>
 <time>2020-03-24T14:59:33Z</time>
</trkpt>
<trkpt lat="35.639865" lon="139.227040">
 <ele>318.8</ele>
 <time>2020-03-24T14:59:33Z</time>
</trkpt>
<trkpt lat="35.639787" lon="139.226955">
 <ele>320</ele>
 <time>2020-03-24T14:59:34Z</time>
</trkpt>
<trkpt lat="35.639633" lon="139.226472">
 <ele>323.8</ele>
 <time>2020-03-24T14:59:34Z</time>
</trkpt>
<trkpt lat="35.639496" lon="139.226053">
 <ele>327.1</ele>
 <time>2020-03-24T14:59:34Z</time>
</trkpt>
<trkpt lat="35.639418" lon="139.225807">
 <ele>330</ele>
 <time>2020-03-24T14:59:34Z</time>
</trkpt>
<trkpt lat="35.639264" lon="139.225528">
 <ele>332.5</ele>
 <time>2020-03-24T14:59:34Z</time>
</trkpt>
<trkpt lat="35.639204" lon="139.225388">
 <ele>334.2</ele>
 <time>2020-03-24T14:59:34Z</time>
</trkpt>
<trkpt lat="35.639152" lon="139.225259">
 <ele>335.5</ele>
 <time>2020-03-24T14:59:34Z</time>
</trkpt>
<trkpt lat="35.639169" lon="139.225131">
 <ele>336.8</ele>
 <time>2020-03-24T14:59:34Z</time>
</trkpt>
<trkpt lat="35.639255" lon="139.225088">
 <ele>336.8</ele>
 <time>2020-03-24T14:59:34Z</time>
</trkpt>
<trkpt lat="35.639358" lon="139.225131">
 <ele>338.4</ele>
 <time>2020-03-24T14:59:34Z</time>
</trkpt>
<trkpt lat="35.639358" lon="139.225216">
 <ele>338.3</ele>
 <time>2020-03-24T14:59:35Z</time>
</trkpt>
<trkpt lat="35.639358" lon="139.225356">
 <ele>339</ele>
 <time>2020-03-24T14:59:35Z</time>
</trkpt>
<trkpt lat="35.639367" lon="139.225506">
 <ele>338.2</ele>
 <time>2020-03-24T14:59:35Z</time>
</trkpt>
<trkpt lat="35.639410" lon="139.225646">
 <ele>339.9</ele>
 <time>2020-03-24T14:59:35Z</time>
</trkpt>
<trkpt lat="35.639513" lon="139.225807">
 <ele>341.9</ele>
 <time>2020-03-24T14:59:35Z</time>
</trkpt>
<trkpt lat="35.639607" lon="139.225957">
 <ele>343.1</ele>
 <time>2020-03-24T14:59:35Z</time>
</trkpt>
<trkpt lat="35.639727" lon="139.225989">
 <ele>344.8</ele>
 <time>2020-03-24T14:59:35Z</time>
</trkpt>
<trkpt lat="35.639787" lon="139.225925">
 <ele>345.3</ele>
 <time>2020-03-24T14:59:35Z</time>
</trkpt>
<trkpt lat="35.639787" lon="139.225828">
 <ele>346.8</ele>
 <time>2020-03-24T14:59:35Z</time>
</trkpt>
<trkpt lat="35.639719" lon="139.225753">
 <ele>347.4</ele>
 <time>2020-03-24T14:59:36Z</time>
</trkpt>
<trkpt lat="35.639624" lon="139.225689">
 <ele>348.6</ele>
 <time>2020-03-24T14:59:36Z</time>
</trkpt>
<trkpt lat="35.639530" lon="139.225603">
 <ele>348.2</ele>
 <time>2020-03-24T14:59:36Z</time>
</trkpt>
<trkpt lat="35.639487" lon="139.225485">
 <ele>348.2</ele>
 <time>2020-03-24T14:59:36Z</time>
</trkpt>
<trkpt lat="35.639496" lon="139.225249">
 <ele>348.5</ele>
 <time>2020-03-24T14:59:36Z</time>
</trkpt>
<trkpt lat="35.639496" lon="139.225141">
 <ele>348.9</ele>
 <time>2020-03-24T14:59:36Z</time>
</trkpt>
<trkpt lat="35.639521" lon="139.225023">
 <ele>349.7</ele>
 <time>2020-03-24T14:59:36Z</time>
</trkpt>
<trkpt lat="35.639487" lon="139.224895">
 <ele>350.7</ele>
 <time>2020-03-24T14:59:36Z</time>
</trkpt>
<trkpt lat="35.639375" lon="139.224809">
 <ele>351.2</ele>
 <time>2020-03-24T14:59:36Z</time>
</trkpt>
<trkpt lat="35.639324" lon="139.224626">
 <ele>354</ele>
 <time>2020-03-24T14:59:36Z</time>
</trkpt>
<trkpt lat="35.639315" lon="139.224390">
 <ele>356.2</ele>
 <time>2020-03-24T14:59:37Z</time>
</trkpt>
<trkpt lat="35.639324" lon="139.224165">
 <ele>358.3</ele>
 <time>2020-03-24T14:59:37Z</time>
</trkpt>
<trkpt lat="35.639350" lon="139.223918">
 <ele>360.5</ele>
 <time>2020-03-24T14:59:37Z</time>
</trkpt>
<trkpt lat="35.639332" lon="139.223618">
 <ele>362.8</ele>
 <time>2020-03-24T14:59:37Z</time>
</trkpt>
<trkpt lat="35.639272" lon="139.223210">
 <ele>365.3</ele>
 <time>2020-03-24T14:59:37Z</time>
</trkpt>
<trkpt lat="35.639247" lon="139.222963">
 <ele>365.1</ele>
 <time>2020-03-24T14:59:37Z</time>
</trkpt>
<trkpt lat="35.639238" lon="139.222749">
 <ele>365.8</ele>
 <time>2020-03-24T14:59:37Z</time>
</trkpt>
<trkpt lat="35.639221" lon="139.222459">
 <ele>368.8</ele>
 <time>2020-03-24T14:59:37Z</time>
</trkpt>
<trkpt lat="35.639221" lon="139.222223">
 <ele>369.8</ele>
 <time>2020-03-24T14:59:37Z</time>
</trkpt>
<trkpt lat="35.639212" lon="139.222051">
 <ele>374.7</ele>
 <time>2020-03-24T14:59:37Z</time>
</trkpt>
<trkpt lat="35.639152" lon="139.221858">
 <ele>376</ele>
 <time>2020-03-24T14:59:38Z</time>
</trkpt>
<trkpt lat="35.639023" lon="139.221676">
 <ele>379.6</ele>
 <time>2020-03-24T14:59:38Z</time>
</trkpt>
<trkpt lat="35.638929" lon="139.221504">
 <ele>384.2</ele>
 <time>2020-03-24T14:59:38Z</time>
</trkpt>
<trkpt lat="35.638878" lon="139.221386">
 <ele>383.9</ele>
 <time>2020-03-24T14:59:38Z</time>
</trkpt>
<trkpt lat="35.638895" lon="139.221300">
 <ele>386.4</ele>
 <time>2020-03-24T14:59:38Z</time>
</trkpt>
<trkpt lat="35.638826" lon="139.221236">
 <ele>386.7</ele>
 <time>2020-03-24T14:59:38Z</time>
</trkpt>
<trkpt lat="35.638740" lon="139.221268">
 <ele>385.2</ele>
 <time>2020-03-24T14:59:38Z</time>
</trkpt>
<trkpt lat="35.638672" lon="139.221247">
 <ele>385.9</ele>
 <time>2020-03-24T14:59:38Z</time>
</trkpt>
<trkpt lat="35.638663" lon="139.221150">
 <ele>387.1</ele>
 <time>2020-03-24T14:59:38Z</time>
</trkpt>
<trkpt lat="35.638740" lon="139.221064">
 <ele>391.5</ele>
 <time>2020-03-24T14:59:39Z</time>
</trkpt>
<trkpt lat="35.638706" lon="139.220968">
 <ele>392.1</ele>
 <time>2020-03-24T14:59:39Z</time>
</trkpt>
<trkpt lat="35.638637" lon="139.220925">
 <ele>391.1</ele>
 <time>2020-03-24T14:59:39Z</time>
</trkpt>
<trkpt lat="35.638603" lon="139.220753">
 <ele>396.4</ele>
 <time>2020-03-24T14:59:39Z</time>
</trkpt>
<trkpt lat="35.638560" lon="139.220560">
 <ele>399</ele>
 <time>2020-03-24T14:59:39Z</time>
</trkpt>
<trkpt lat="35.638534" lon="139.220335">
 <ele>402</ele>
 <time>2020-03-24T14:59:39Z</time>
</trkpt>
<trkpt lat="35.638586" lon="139.220228">
 <ele>404.9</ele>
 <time>2020-03-24T14:59:39Z</time>
</trkpt>
<trkpt lat="35.638680" lon="139.220152">
 <ele>411.6</ele>
 <time>2020-03-24T14:59:39Z</time>
</trkpt>
<trkpt lat="35.638706" lon="139.220013">
 <ele>409.8</ele>
 <time>2020-03-24T14:59:39Z</time>
</trkpt>
<trkpt lat="35.638637" lon="139.220002">
 <ele>405.6</ele>
 <time>2020-03-24T14:59:39Z</time>
</trkpt>
<trkpt lat="35.638509" lon="139.220034">
 <ele>405.9</ele>
 <time>2020-03-24T14:59:40Z</time>
</trkpt>
<trkpt lat="35.638388" lon="139.220056">
 <ele>403.8</ele>
 <time>2020-03-24T14:59:40Z</time>
</trkpt>
<trkpt lat="35.638268" lon="139.220045">
 <ele>408.4</ele>
 <time>2020-03-24T14:59:40Z</time>
</trkpt>
<trkpt lat="35.638260" lon="139.219906">
 <ele>409.5</ele>
 <time>2020-03-24T14:59:40Z</time>
</trkpt>
<trkpt lat="35.638260" lon="139.219820">
 <ele>410</ele>
 <time>2020-03-24T14:59:40Z</time>
</trkpt>
<trkpt lat="35.638148" lon="139.219648">
 <ele>413.7</ele>
 <time>2020-03-24T14:59:40Z</time>
</trkpt>
<trkpt lat="35.638054" lon="139.219519">
 <ele>414.1</ele>
 <time>2020-03-24T14:59:40Z</time>
</trkpt>
<trkpt lat="35.637951" lon="139.219434">
 <ele>416.1</ele>
 <time>2020-03-24T14:59:40Z</time>
</trkpt>
<trkpt lat="35.637848" lon="139.219348">
 <ele>418.2</ele>
 <time>2020-03-24T14:59:40Z</time>
</trkpt>
<trkpt lat="35.637813" lon="139.219219">
 <ele>421.3</ele>
 <time>2020-03-24T14:59:40Z</time>
</trkpt>
<trkpt lat="35.637779" lon="139.219090">
 <ele>426.4</ele>
 <time>2020-03-24T14:59:41Z</time>
</trkpt>
<trkpt lat="35.637693" lon="139.219112">
 <ele>423.5</ele>
 <time>2020-03-24T14:59:41Z</time>
</trkpt>
<trkpt lat="35.637607" lon="139.219144">
 <ele>424.8</ele>
 <time>2020-03-24T14:59:41Z</time>
</trkpt>
<trkpt lat="35.637461" lon="139.219155">
 <ele>426.8</ele>
 <time>2020-03-24T14:59:41Z</time>
</trkpt>
<trkpt lat="35.637410" lon="139.219122">
 <ele>428.7</ele>
 <time>2020-03-24T14:59:41Z</time>
</trkpt>
<trkpt lat="35.637367" lon="139.219015">
 <ele>431.2</ele>
 <time>2020-03-24T14:59:41Z</time>
</trkpt>
<trkpt lat="35.637324" lon="139.218908">
 <ele>438.7</ele>
 <time>2020-03-24T14:59:41Z</time>
</trkpt>
<trkpt lat="35.637170" lon="139.218768">
 <ele>437.8</ele>
 <time>2020-03-24T14:59:41Z</time>
</trkpt>
<trkpt lat="35.637092" lon="139.218650">
 <ele>439.9</ele>
 <time>2020-03-24T14:59:41Z</time>
</trkpt>
<trkpt lat="35.637135" lon="139.218554">
 <ele>443.8</ele>
 <time>2020-03-24T14:59:41Z</time>
</trkpt>
<trkpt lat="35.637212" lon="139.218683">
 <ele>446</ele>
 <time>2020-03-24T14:59:42Z</time>
</trkpt>
<trkpt lat="35.637315" lon="139.218747">
 <ele>447.7</ele>
 <time>2020-03-24T14:59:42Z</time>
</trkpt>
<trkpt lat="35.637436" lon="139.218790">
 <ele>446.5</ele>
 <time>2020-03-24T14:59:42Z</time>
</trkpt>
<trkpt lat="35.637444" lon="139.218726">
 <ele>446.7</ele>
 <time>2020-03-24T14:59:42Z</time>
</trkpt>
<trkpt lat="35.637401" lon="139.218650">
 <ele>449.5</ele>
 <time>2020-03-24T14:59:42Z</time>
</trkpt>
<trkpt lat="35.637376" lon="139.218650">
 <ele>450.8</ele>
 <time>2020-03-24T14:59:42Z</time>
</trkpt>
<trkpt lat="35.637367" lon="139.218618">
 <ele>451.9</ele>
 <time>2020-03-24T14:59:42Z</time>
</trkpt>
<trkpt lat="35.637376" lon="139.218554">
 <ele>452.8</ele>
 <time>2020-03-24T14:59:42Z</time>
</trkpt>
<trkpt lat="35.637315" lon="139.218511">
 <ele>454.5</ele>
 <time>2020-03-24T14:59:42Z</time>
</trkpt>
<trkpt lat="35.637393" lon="139.218393">
 <ele>456.1</ele>
 <time>2020-03-24T14:59:43Z</time>
</trkpt>
<trkpt lat="35.637513" lon="139.218211">
 <ele>459.1</ele>
 <time>2020-03-24T14:59:43Z</time>
</trkpt>
<trkpt lat="35.637616" lon="139.218125">
 <ele>460</ele>
 <time>2020-03-24T14:59:43Z</time>
</trkpt>
<trkpt lat="35.637685" lon="139.218039">
 <ele>461.4</ele>
 <time>2020-03-24T14:59:43Z</time>
</trkpt>
<trkpt lat="35.637650" lon="139.217975">
 <ele>468.1</ele>
 <time>2020-03-24T14:59:43Z</time>
</trkpt>
<trkpt lat="35.637573" lon="139.218028">
 <ele>466</ele>
 <time>2020-03-24T14:59:43Z</time>
</trkpt>
<trkpt lat="35.637479" lon="139.218060">
 <ele>468.7</ele>
 <time>2020-03-24T14:59:43Z</time>
</trkpt>
<trkpt lat="35.637436" lon="139.218060">
 <ele>470.6</ele>
 <time>2020-03-24T14:59:43Z</time>
</trkpt>
<trkpt lat="35.637367" lon="139.217996">
 <ele>475.5</ele>
 <time>2020-03-24T14:59:43Z</time>
</trkpt>
<trkpt lat="35.637427" lon="139.217932">
 <ele>479.5</ele>
 <time>2020-03-24T14:59:43Z</time>
</trkpt>
<trkpt lat="35.637410" lon="139.217760">
 <ele>486.8</ele>
 <time>2020-03-24T14:59:44Z</time>
</trkpt>
<trkpt lat="35.637496" lon="139.217728">
 <ele>485.3</ele>
 <time>2020-03-24T14:59:44Z</time>
</trkpt>
<trkpt lat="35.637513" lon="139.217653">
 <ele>488.5</ele>
 <time>2020-03-24T14:59:44Z</time>
</trkpt>
<trkpt lat="35.637487" lon="139.217599">
 <ele>490.7</ele>
 <time>2020-03-24T14:59:44Z</time>
</trkpt>
<trkpt lat="35.637479" lon="139.217545">
 <ele>493.3</ele>
 <time>2020-03-24T14:59:44Z</time>
</trkpt>
<trkpt lat="35.637539" lon="139.217545">
 <ele>492.7</ele>
 <time>2020-03-24T14:59:44Z</time>
</trkpt>
<trkpt lat="35.637539" lon="139.217470">
 <ele>494.4</ele>
 <time>2020-03-24T14:59:44Z</time>
</trkpt>
<trkpt lat="35.637582" lon="139.217417">
 <ele>497.7</ele>
 <time>2020-03-24T14:59:44Z</time>
</trkpt>
<trkpt lat="35.637633" lon="139.217320">
 <ele>501.1</ele>
 <time>2020-03-24T14:59:44Z</time>
</trkpt>
<trkpt lat="35.637659" lon="139.217288">
 <ele>503.7</ele>
 <time>2020-03-24T14:59:44Z</time>
</trkpt>
<trkpt lat="35.637633" lon="139.217191">
 <ele>508.3</ele>
 <time>2020-03-24T14:59:45Z</time>
</trkpt>
<trkpt lat="35.637702" lon="139.217116">
 <ele>511.4</ele>
 <time>2020-03-24T14:59:45Z</time>
</trkpt>
<trkpt lat="35.637642" lon="139.216998">
 <ele>514.5</ele>
 <time>2020-03-24T14:59:45Z</time>
</trkpt>
<trkpt lat="35.637521" lon="139.216848">
 <ele>517.2</ele>
 <time>2020-03-24T14:59:45Z</time>
</trkpt>
<trkpt lat="35.637487" lon="139.216741">
 <ele>520.5</ele>
 <time>2020-03-24T14:59:45Z</time>
</trkpt>
<trkpt lat="35.637427" lon="139.216698">
 <ele>522.2</ele>
 <time>2020-03-24T14:59:45Z</time>
</trkpt>
<trkpt lat="35.637341" lon="139.216687">
 <ele>525.5</ele>
 <time>2020-03-24T14:59:45Z</time>
</trkpt>
<trkpt lat="35.637230" lon="139.216698">
 <ele>527.4</ele>
 <time>2020-03-24T14:59:45Z</time>
</trkpt>
<trkpt lat="35.637152" lon="139.216698">
 <ele>531.2</ele>
 <time>2020-03-24T14:59:45Z</time>
</trkpt>
<trkpt lat="35.637024" lon="139.216784">
 <ele>535.1</ele>
 <time>2020-03-24T14:59:46Z</time>
</trkpt>
<trkpt lat="35.636955" lon="139.216859">
 <ele>536.2</ele>
 <time>2020-03-24T14:59:46Z</time>
</trkpt>
<trkpt lat="35.636852" lon="139.216880">
 <ele>537.1</ele>
 <time>2020-03-24T14:59:46Z</time>
</trkpt>
<trkpt lat="35.636783" lon="139.216880">
 <ele>537.9</ele>
 <time>2020-03-24T14:59:46Z</time>
</trkpt>
<trkpt lat="35.636689" lon="139.216827">
 <ele>540.1</ele>
 <time>2020-03-24T14:59:46Z</time>
</trkpt>
<trkpt lat="35.636612" lon="139.216805">
 <ele>541.6</ele>
 <time>2020-03-24T14:59:46Z</time>
</trkpt>
<trkpt lat="35.636534" lon="139.216741">
 <ele>544.8</ele>
 <time>2020-03-24T14:59:46Z</time>
</trkpt>
<trkpt lat="35.636449" lon="139.216698">
 <ele>548.3</ele>
 <time>2020-03-24T14:59:46Z</time>
</trkpt>
<trkpt lat="35.636363" lon="139.216633">
 <ele>551.8</ele>
 <time>2020-03-24T14:59:47Z</time>
</trkpt>
<trkpt lat="35.636371" lon="139.216494">
 <ele>553.2</ele>
 <time>2020-03-24T14:59:47Z</time>
</trkpt>
<trkpt lat="35.636371" lon="139.216419">
 <ele>551.1</ele>
 <time>2020-03-24T14:59:47Z</time>
</trkpt>
<trkpt lat="35.636474" lon="139.216333">
 <ele>556.9</ele>
 <time>2020-03-24T14:59:47Z</time>
</trkpt>
<trkpt lat="35.636586" lon="139.216258">
 <ele>565.2</ele>
 <time>2020-03-24T14:59:47Z</time>
</trkpt>
<trkpt lat="35.636672" lon="139.216140">
 <ele>569.6</ele>
 <time>2020-03-24T14:59:47Z</time>
</trkpt>
<trkpt lat="35.636758" lon="139.216065">
 <ele>573.5</ele>
 <time>2020-03-24T14:59:47Z</time>
</trkpt>
<trkpt lat="35.636818" lon="139.215957">
 <ele>576.8</ele>
 <time>2020-03-24T14:59:47Z</time>
</trkpt>
<trkpt lat="35.636878" lon="139.215882">
 <ele>579</ele>
 <time>2020-03-24T14:59:47Z</time>
</trkpt>
<trkpt lat="35.636912" lon="139.215775">
 <ele>582.5</ele>
 <time>2020-03-24T14:59:47Z</time>
</trkpt>
<trkpt lat="35.636955" lon="139.215679">
 <ele>584.6</ele>
 <time>2020-03-24T14:59:48Z</time>
</trkpt>
<trkpt lat="35.637032" lon="139.215636">
 <ele>586.6</ele>
 <time>2020-03-24T14:59:48Z</time>
</trkpt>
<trkpt lat="35.637170" lon="139.215561">
 <ele>587.1</ele>
 <time>2020-03-24T14:59:48Z</time>
</trkpt>
<trkpt lat="35.637341" lon="139.215528">
 <ele>589</ele>
 <time>2020-03-24T14:59:48Z</time>
</trkpt>
<trkpt lat="35.637453" lon="139.215528">
 <ele>592</ele>
 <time>2020-03-24T14:59:48Z</time>
</trkpt>
<trkpt lat="35.637573" lon="139.215496">
 <ele>597.4</ele>
 <time>2020-03-24T14:59:48Z</time>
</trkpt>
<trkpt lat="35.637667" lon="139.215475">
 <ele>599.9</ele>
 <time>2020-03-24T14:59:48Z</time>
</trkpt>
<trkpt lat="35.637762" lon="139.215475">
 <ele>601.7</ele>
 <time>2020-03-24T14:59:48Z</time>
</trkpt>
<trkpt lat="35.637856" lon="139.215432">
 <ele>603.1</ele>
 <time>2020-03-24T14:59:48Z</time>
</trkpt>
<trkpt lat="35.638019" lon="139.215443">
 <ele>604.4</ele>
 <time>2020-03-24T14:59:48Z</time>
</trkpt>
<trkpt lat="35.638174" lon="139.215485">
 <ele>606.7</ele>
 <time>2020-03-24T14:59:49Z</time>
</trkpt>
<trkpt lat="35.638251" lon="139.215507">
 <ele>607.2</ele>
 <time>2020-03-24T14:59:49Z</time>
</trkpt>
<trkpt lat="35.638354" lon="139.215475">
 <ele>607.7</ele>
 <time>2020-03-24T14:59:49Z</time>
</trkpt>
<trkpt lat="35.638423" lon="139.215475">
 <ele>608.5</ele>
 <time>2020-03-24T14:59:49Z</time>
</trkpt>
<trkpt lat="35.638500" lon="139.215464">
 <ele>610.4</ele>
 <time>2020-03-24T14:59:49Z</time>
</trkpt>
<trkpt lat="35.638620" lon="139.215464">
 <ele>613.7</ele>
 <time>2020-03-24T14:59:49Z</time>
</trkpt>
<trkpt lat="35.638697" lon="139.215432">
 <ele>616.5</ele>
 <time>2020-03-24T14:59:49Z</time>
</trkpt>
<trkpt lat="35.638809" lon="139.215464">
 <ele>621.1</ele>
 <time>2020-03-24T14:59:49Z</time>
</trkpt>
<trkpt lat="35.638963" lon="139.215518">
 <ele>629.4</ele>
 <time>2020-03-24T14:59:49Z</time>
</trkpt>
<trkpt lat="35.639135" lon="139.215550">
 <ele>635.4</ele>
 <time>2020-03-24T14:59:50Z</time>
</trkpt>
<trkpt lat="35.639221" lon="139.215550">
 <ele>636.9</ele>
 <time>2020-03-24T14:59:50Z</time>
</trkpt>
<trkpt lat="35.639367" lon="139.215582">
 <ele>642.5</ele>
 <time>2020-03-24T14:59:50Z</time>
</trkpt>
<trkpt lat="35.639470" lon="139.215582">
 <ele>644.3</ele>
 <time>2020-03-24T14:59:50Z</time>
</trkpt>
<trkpt lat="35.639702" lon="139.215475">
 <ele>645.2</ele>
 <time>2020-03-24T14:59:50Z</time>
</trkpt>
<trkpt lat="35.639865" lon="139.215410">
 <ele>644.5</ele>
 <time>2020-03-24T14:59:50Z</time>
</trkpt>
<trkpt lat="35.639985" lon="139.215357">
 <ele>643.7</ele>
 <time>2020-03-24T14:59:50Z</time>
</trkpt>
<trkpt lat="35.640165" lon="139.215346">
 <ele>643.8</ele>
 <time>2020-03-24T14:59:50Z</time>
</trkpt>
<trkpt lat="35.640294" lon="139.215335">
 <ele>644.4</ele>
 <time>2020-03-24T14:59:50Z</time>
</trkpt>
<trkpt lat="35.640362" lon="139.215314">
 <ele>644.5</ele>
 <time>2020-03-24T14:59:50Z</time>
</trkpt>
<trkpt lat="35.640534" lon="139.215260">
 <ele>646.2</ele>
 <time>2020-03-24T14:59:51Z</time>
</trkpt>
<trkpt lat="35.640654" lon="139.215228">
 <ele>646.8</ele>
 <time>2020-03-24T14:59:51Z</time>
</trkpt>
<trkpt lat="35.640766" lon="139.215174">
 <ele>650.3</ele>
 <time>2020-03-24T14:59:51Z</time>
</trkpt>
<trkpt lat="35.640929" lon="139.215056">
 <ele>655.4</ele>
 <time>2020-03-24T14:59:51Z</time>
</trkpt>
<trkpt lat="35.641058" lon="139.214917">
 <ele>659.4</ele>
 <time>2020-03-24T14:59:51Z</time>
</trkpt>
<trkpt lat="35.641161" lon="139.214820">
 <ele>662.7</ele>
 <time>2020-03-24T14:59:51Z</time>
</trkpt>
<trkpt lat="35.641289" lon="139.214724">
 <ele>664.8</ele>
 <time>2020-03-24T14:59:51Z</time>
</trkpt>
<trkpt lat="35.641367" lon="139.214627">
 <ele>664.9</ele>
 <time>2020-03-24T14:59:51Z</time>
</trkpt>
<trkpt lat="35.641504" lon="139.214573">
 <ele>663.5</ele>
 <time>2020-03-24T14:59:51Z</time>
</trkpt>
<trkpt lat="35.641633" lon="139.214573">
 <ele>662.7</ele>
 <time>2020-03-24T14:59:52Z</time>
</trkpt>
<trkpt lat="35.641753" lon="139.214595">
 <ele>664.1</ele>
 <time>2020-03-24T14:59:52Z</time>
</trkpt>
<trkpt lat="35.641847" lon="139.214627">
 <ele>662.7</ele>
 <time>2020-03-24T14:59:52Z</time>
</trkpt>
<trkpt lat="35.641959" lon="139.214702">
 <ele>661.4</ele>
 <time>2020-03-24T14:59:52Z</time>
</trkpt>
<trkpt lat="35.642079" lon="139.214788">
 <ele>661.8</ele>
 <time>2020-03-24T14:59:52Z</time>
</trkpt>
<trkpt lat="35.642208" lon="139.214874">
 <ele>660.3</ele>
 <time>2020-03-24T14:59:52Z</time>
</trkpt>
<trkpt lat="35.642319" lon="139.214938">
 <ele>658.3</ele>
 <time>2020-03-24T14:59:52Z</time>
</trkpt>
<trkpt lat="35.642465" lon="139.215035">
 <ele>652.8</ele>
 <time>2020-03-24T14:59:52Z</time>
</trkpt>
<trkpt lat="35.642577" lon="139.215035">
 <ele>649.8</ele>
 <time>2020-03-24T14:59:52Z</time>
</trkpt>
<trkpt lat="35.642663" lon="139.215056">
 <ele>647.4</ele>
 <time>2020-03-24T14:59:52Z</time>
</trkpt>
<trkpt lat="35.642800" lon="139.214992">
 <ele>645.7</ele>
 <time>2020-03-24T14:59:53Z</time>
</trkpt>
<trkpt lat="35.642929" lon="139.215003">
 <ele>647</ele>
 <time>2020-03-24T14:59:53Z</time>
</trkpt>
<trkpt lat="35.643032" lon="139.215024">
 <ele>648.4</ele>
 <time>2020-03-24T14:59:53Z</time>
</trkpt>
<trkpt lat="35.643143" lon="139.215056">
 <ele>652.3</ele>
 <time>2020-03-24T14:59:53Z</time>
</trkpt>
<trkpt lat="35.643272" lon="139.215056">
 <ele>656.1</ele>
 <time>2020-03-24T14:59:53Z</time>
</trkpt>
<trkpt lat="35.643367" lon="139.215056">
 <ele>659.1</ele>
 <time>2020-03-24T14:59:53Z</time>
</trkpt>
<trkpt lat="35.643435" lon="139.215056">
 <ele>658.9</ele>
 <time>2020-03-24T14:59:53Z</time>
</trkpt>
<trkpt lat="35.643564" lon="139.215013">
 <ele>658.7</ele>
 <time>2020-03-24T14:59:53Z</time>
</trkpt>
<trkpt lat="35.643658" lon="139.214960">
 <ele>661.7</ele>
 <time>2020-03-24T14:59:53Z</time>
</trkpt>
<trkpt lat="35.643736" lon="139.214960">
 <ele>664.3</ele>
 <time>2020-03-24T14:59:53Z</time>
</trkpt>
<trkpt lat="35.643882" lon="139.215013">
 <ele>667.7</ele>
 <time>2020-03-24T14:59:54Z</time>
</trkpt>
<trkpt lat="35.643985" lon="139.215056">
 <ele>670.6</ele>
 <time>2020-03-24T14:59:54Z</time>
</trkpt>
<trkpt lat="35.644079" lon="139.215121">
 <ele>672</ele>
 <time>2020-03-24T14:59:54Z</time>
</trkpt>
<trkpt lat="35.644182" lon="139.215196">
 <ele>675.1</ele>
 <time>2020-03-24T14:59:54Z</time>
</trkpt>
<trkpt lat="35.644285" lon="139.215239">
 <ele>677.7</ele>
 <time>2020-03-24T14:59:54Z</time>
</trkpt>
<trkpt lat="35.644345" lon="139.215292">
 <ele>677.1</ele>
 <time>2020-03-24T14:59:54Z</time>
</trkpt>
<trkpt lat="35.644457" lon="139.215324">
 <ele>675.8</ele>
 <time>2020-03-24T14:59:54Z</time>
</trkpt>
<trkpt lat="35.644585" lon="139.215367">
 <ele>674.9</ele>
 <time>2020-03-24T14:59:54Z</time>
</trkpt>
<trkpt lat="35.644714" lon="139.215432">
 <ele>675.6</ele>
 <time>2020-03-24T14:59:54Z</time>
</trkpt>
<trkpt lat="35.644800" lon="139.215475">
 <ele>677.2</ele>
 <time>2020-03-24T14:59:55Z</time>
</trkpt>
<trkpt lat="35.644851" lon="139.215561">
 <ele>680.7</ele>
 <time>2020-03-24T14:59:55Z</time>
</trkpt>
<trkpt lat="35.644877" lon="139.215646">
 <ele>680.7</ele>
 <time>2020-03-24T14:59:55Z</time>
</trkpt>
<trkpt lat="35.644920" lon="139.215732">
 <ele>686.2</ele>
 <time>2020-03-24T14:59:55Z</time>
</trkpt>
<trkpt lat="35.645006" lon="139.215797">
 <ele>692.1</ele>
 <time>2020-03-24T14:59:55Z</time>
</trkpt>
<trkpt lat="35.645023" lon="139.215711">
 <ele>696.2</ele>
 <time>2020-03-24T14:59:55Z</time>
</trkpt>
<trkpt lat="35.645075" lon="139.215625">
 <ele>696.2</ele>
 <time>2020-03-24T14:59:55Z</time>
</trkpt>
<trkpt lat="35.645100" lon="139.215732">
 <ele>701.2</ele>
 <time>2020-03-24T14:59:55Z</time>
</trkpt>
<trkpt lat="35.645100" lon="139.215797">
 <ele>702.4</ele>
 <time>2020-03-24T14:59:55Z</time>
</trkpt>
<trkpt lat="35.645143" lon="139.215861">
 <ele>704.9</ele>
 <time>2020-03-24T14:59:55Z</time>
</trkpt>
<trkpt lat="35.645186" lon="139.215807">
 <ele>707.3</ele>
 <time>2020-03-24T14:59:56Z</time>
</trkpt>
<trkpt lat="35.645238" lon="139.215861">
 <ele>710.3</ele>
 <time>2020-03-24T14:59:56Z</time>
</trkpt>
<trkpt lat="35.645315" lon="139.215925">
 <ele>713.9</ele>
 <time>2020-03-24T14:59:56Z</time>
</trkpt>
<trkpt lat="35.645418" lon="139.215968">
 <ele>716.9</ele>
 <time>2020-03-24T14:59:56Z</time>
</trkpt>
<trkpt lat="35.645504" lon="139.215925">
 <ele>717.8</ele>
 <time>2020-03-24T14:59:56Z</time>
</trkpt>
<trkpt lat="35.645581" lon="139.215904">
 <ele>719.1</ele>
 <time>2020-03-24T14:59:56Z</time>
</trkpt>
<trkpt lat="35.645693" lon="139.215904">
 <ele>721.7</ele>
 <time>2020-03-24T14:59:56Z</time>
</trkpt>
<trkpt lat="35.645847" lon="139.215904">
 <ele>724.1</ele>
 <time>2020-03-24T14:59:56Z</time>
</trkpt>
<trkpt lat="35.646000" lon="139.215883">
 <ele>725.2</ele>
 <time>2020-03-24T14:59:56Z</time>
</trkpt>
<trkpt lat="35.646010" lon="139.216000">
 <ele>725</ele>
 <time>2020-03-24T14:59:57Z</time>
</trkpt>
<trkpt lat="35.645907" lon="139.216140">
 <ele>722.9</ele>
 <time>2020-03-24T14:59:57Z</time>
</trkpt>
<trkpt lat="35.645796" lon="139.216312">
 <ele>719.9</ele>
 <time>2020-03-24T14:59:57Z</time>
</trkpt>
<trkpt lat="35.645744" lon="139.216462">
 <ele>714.8</ele>
 <time>2020-03-24T14:59:57Z</time>
</trkpt>
<trkpt lat="35.645701" lon="139.216612">
 <ele>709.2</ele>
 <time>2020-03-24T14:59:57Z</time>
</trkpt>
<trkpt lat="35.645727" lon="139.216784">
 <ele>703.7</ele>
 <time>2020-03-24T14:59:57Z</time>
</trkpt>
<trkpt lat="35.645744" lon="139.216966">
 <ele>698.3</ele>
 <time>2020-03-24T14:59:57Z</time>
</trkpt>
<trkpt lat="35.645813" lon="139.217138">
 <ele>694.4</ele>
 <time>2020-03-24T14:59:57Z</time>
</trkpt>
<trkpt lat="35.645787" lon="139.217234">
 <ele>692.9</ele>
 <time>2020-03-24T14:59:57Z</time>
</trkpt>
<trkpt lat="35.645796" lon="139.217374">
 <ele>690</ele>
 <time>2020-03-24T14:59:57Z</time>
</trkpt>
<trkpt lat="35.645821" lon="139.217470">
 <ele>686.8</ele>
 <time>2020-03-24T14:59:58Z</time>
</trkpt>
<trkpt lat="35.645847" lon="139.217556">
 <ele>684</ele>
 <time>2020-03-24T14:59:58Z</time>
</trkpt>
<trkpt lat="35.645847" lon="139.217674">
 <ele>681.8</ele>
 <time>2020-03-24T14:59:58Z</time>
</trkpt>
<trkpt lat="35.645864" lon="139.217771">
 <ele>677.3</ele>
 <time>2020-03-24T14:59:58Z</time>
</trkpt>
<trkpt lat="35.645821" lon="139.217846">
 <ele>676.8</ele>
 <time>2020-03-24T14:59:58Z</time>
</trkpt>
<trkpt lat="35.645804" lon="139.217899">
 <ele>674.1</ele>
 <time>2020-03-24T14:59:58Z</time>
</trkpt>
<trkpt lat="35.645804" lon="139.218007">
 <ele>670.9</ele>
 <time>2020-03-24T14:59:58Z</time>
</trkpt>
<trkpt lat="35.645796" lon="139.218114">
 <ele>664.8</ele>
 <time>2020-03-24T14:59:58Z</time>
</trkpt>
<trkpt lat="35.645727" lon="139.218157">
 <ele>662.3</ele>
 <time>2020-03-24T14:59:58Z</time>
</trkpt>
<trkpt lat="35.645735" lon="139.218232">
 <ele>660.4</ele>
 <time>2020-03-24T14:59:58Z</time>
</trkpt>
<trkpt lat="35.645684" lon="139.218318">
 <ele>655.8</ele>
 <time>2020-03-24T14:59:59Z</time>
</trkpt>
<trkpt lat="35.645624" lon="139.218479">
 <ele>647.2</ele>
 <time>2020-03-24T14:59:59Z</time>
</trkpt>
<trkpt lat="35.645581" lon="139.218543">
 <ele>642.6</ele>
 <time>2020-03-24T14:59:59Z</time>
</trkpt>
<trkpt lat="35.645547" lon="139.218597">
 <ele>639.6</ele>
 <time>2020-03-24T14:59:59Z</time>
</trkpt>
<trkpt lat="35.645555" lon="139.218683">
 <ele>635.6</ele>
 <time>2020-03-24T14:59:59Z</time>
</trkpt>
<trkpt lat="35.645521" lon="139.218726">
 <ele>633.6</ele>
 <time>2020-03-24T14:59:59Z</time>
</trkpt>
<trkpt lat="35.645444" lon="139.218790">
 <ele>631</ele>
 <time>2020-03-24T14:59:59Z</time>
</trkpt>
<trkpt lat="35.645401" lon="139.218908">
 <ele>625.8</ele>
 <time>2020-03-24T14:59:59Z</time>
</trkpt>
<trkpt lat="35.645392" lon="139.219015">
 <ele>621</ele>
 <time>2020-03-24T14:59:59Z</time>
</trkpt>
<trkpt lat="35.645349" lon="139.219251">
 <ele>613.4</ele>
 <time>2020-03-24T15:00:00Z</time>
</trkpt>
<trkpt lat="35.645384" lon="139.219412">
 <ele>609.4</ele>
 <time>2020-03-24T15:00:00Z</time>
</trkpt>
<trkpt lat="35.645401" lon="139.219519">
 <ele>608.3</ele>
 <time>2020-03-24T15:00:00Z</time>
</trkpt>
<trkpt lat="35.645401" lon="139.219648">
 <ele>606.7</ele>
 <time>2020-03-24T15:00:00Z</time>
</trkpt>
<trkpt lat="35.645392" lon="139.219723">
 <ele>605.9</ele>
 <time>2020-03-24T15:00:00Z</time>
</trkpt>
<trkpt lat="35.645332" lon="139.219895">
 <ele>602.2</ele>
 <time>2020-03-24T15:00:00Z</time>
</trkpt>
<trkpt lat="35.645255" lon="139.220045">
 <ele>599</ele>
 <time>2020-03-24T15:00:00Z</time>
</trkpt>
<trkpt lat="35.645203" lon="139.220195">
 <ele>597.9</ele>
 <time>2020-03-24T15:00:00Z</time>
</trkpt>
<trkpt lat="35.645160" lon="139.220281">
 <ele>594</ele>
 <time>2020-03-24T15:00:00Z</time>
</trkpt>
<trkpt lat="35.645152" lon="139.220399">
 <ele>595.1</ele>
 <time>2020-03-24T15:00:00Z</time>
</trkpt>
<trkpt lat="35.645135" lon="139.220582">
 <ele>597.8</ele>
 <time>2020-03-24T15:00:01Z</time>
</trkpt>
<trkpt lat="35.645109" lon="139.220646">
 <ele>598.2</ele>
 <time>2020-03-24T15:00:01Z</time>
</trkpt>
<trkpt lat="35.645023" lon="139.220667">
 <ele>595.4</ele>
 <time>2020-03-24T15:00:01Z</time>
</trkpt>
<trkpt lat="35.644911" lon="139.220764">
 <ele>590.9</ele>
 <time>2020-03-24T15:00:01Z</time>
</trkpt>
<trkpt lat="35.644808" lon="139.220775">
 <ele>585.2</ele>
 <time>2020-03-24T15:00:01Z</time>
</trkpt>
<trkpt lat="35.644705" lon="139.220743">
 <ele>583.2</ele>
 <time>2020-03-24T15:00:01Z</time>
</trkpt>
<trkpt lat="35.644620" lon="139.220678">
 <ele>580</ele>
 <time>2020-03-24T15:00:01Z</time>
</trkpt>
<trkpt lat="35.644517" lon="139.220753">
 <ele>576.5</ele>
 <time>2020-03-24T15:00:01Z</time>
</trkpt>
<trkpt lat="35.644405" lon="139.220743">
 <ele>572.9</ele>
 <time>2020-03-24T15:00:01Z</time>
</trkpt>
<trkpt lat="35.644285" lon="139.220743">
 <ele>566</ele>
 <time>2020-03-24T15:00:02Z</time>
</trkpt>
<trkpt lat="35.644173" lon="139.220764">
 <ele>562.4</ele>
 <time>2020-03-24T15:00:02Z</time>
</trkpt>
<trkpt lat="35.644088" lon="139.220818">
 <ele>557.8</ele>
 <time>2020-03-24T15:00:02Z</time>
</trkpt>
<trkpt lat="35.643976" lon="139.220828">
 <ele>554</ele>
 <time>2020-03-24T15:00:02Z</time>
</trkpt>
<trkpt lat="35.643873" lon="139.220871">
 <ele>549.2</ele>
 <time>2020-03-24T15:00:02Z</time>
</trkpt>
<trkpt lat="35.643813" lon="139.220936">
 <ele>544.7</ele>
 <time>2020-03-24T15:00:02Z</time>
</trkpt>
<trkpt lat="35.643701" lon="139.220914">
 <ele>543.3</ele>
 <time>2020-03-24T15:00:02Z</time>
</trkpt>
<trkpt lat="35.643607" lon="139.220925">
 <ele>542.7</ele>
 <time>2020-03-24T15:00:02Z</time>
</trkpt>
<trkpt lat="35.643530" lon="139.220979">
 <ele>541.2</ele>
 <time>2020-03-24T15:00:02Z</time>
</trkpt>
<trkpt lat="35.643435" lon="139.220968">
 <ele>540.7</ele>
 <time>2020-03-24T15:00:03Z</time>
</trkpt>
<trkpt lat="35.643332" lon="139.220957">
 <ele>539.6</ele>
 <time>2020-03-24T15:00:03Z</time>
</trkpt>
<trkpt lat="35.643246" lon="139.220957">
 <ele>538.3</ele>
 <time>2020-03-24T15:00:03Z</time>
</trkpt>
<trkpt lat="35.643169" lon="139.220957">
 <ele>535.5</ele>
 <time>2020-03-24T15:00:03Z</time>
</trkpt>
<trkpt lat="35.643083" lon="139.220979">
 <ele>533.3</ele>
 <time>2020-03-24T15:00:03Z</time>
</trkpt>
<trkpt lat="35.642997" lon="139.221021">
 <ele>529.2</ele>
 <time>2020-03-24T15:00:03Z</time>
</trkpt>
<trkpt lat="35.642894" lon="139.221140">
 <ele>522.2</ele>
 <time>2020-03-24T15:00:03Z</time>
</trkpt>
<trkpt lat="35.642817" lon="139.221193">
 <ele>519.8</ele>
 <time>2020-03-24T15:00:03Z</time>
</trkpt>
<trkpt lat="35.642731" lon="139.221204">
 <ele>518.7</ele>
 <time>2020-03-24T15:00:03Z</time>
</trkpt>
<trkpt lat="35.642637" lon="139.221236">
 <ele>519.7</ele>
 <time>2020-03-24T15:00:04Z</time>
</trkpt>
<trkpt lat="35.642543" lon="139.221300">
 <ele>517.5</ele>
 <time>2020-03-24T15:00:04Z</time>
</trkpt>
<trkpt lat="35.642500" lon="139.221397">
 <ele>515.4</ele>
 <time>2020-03-24T15:00:04Z</time>
</trkpt>
<trkpt lat="35.642440" lon="139.221515">
 <ele>512</ele>
 <time>2020-03-24T15:00:04Z</time>
</trkpt>
<trkpt lat="35.642362" lon="139.221665">
 <ele>507.6</ele>
 <time>2020-03-24T15:00:04Z</time>
</trkpt>
<trkpt lat="35.642302" lon="139.221751">
 <ele>504.9</ele>
 <time>2020-03-24T15:00:04Z</time>
</trkpt>
<trkpt lat="35.642208" lon="139.221815">
 <ele>502.1</ele>
 <time>2020-03-24T15:00:04Z</time>
</trkpt>
<trkpt lat="35.642148" lon="139.221869">
 <ele>499.7</ele>
 <time>2020-03-24T15:00:04Z</time>
</trkpt>
<trkpt lat="35.642088" lon="139.221955">
 <ele>495</ele>
 <time>2020-03-24T15:00:04Z</time>
</trkpt>
<trkpt lat="35.642045" lon="139.222009">
 <ele>492.7</ele>
 <time>2020-03-24T15:00:05Z</time>
</trkpt>
<trkpt lat="35.641985" lon="139.222030">
 <ele>490.5</ele>
 <time>2020-03-24T15:00:05Z</time>
</trkpt>
<trkpt lat="35.641830" lon="139.222116">
 <ele>486</ele>
 <time>2020-03-24T15:00:05Z</time>
</trkpt>
<trkpt lat="35.641779" lon="139.222180">
 <ele>482.5</ele>
 <time>2020-03-24T15:00:05Z</time>
</trkpt>
<trkpt lat="35.641701" lon="139.222180">
 <ele>480.3</ele>
 <time>2020-03-24T15:00:05Z</time>
</trkpt>
<trkpt lat="35.641581" lon="139.222202">
 <ele>477.6</ele>
 <time>2020-03-24T15:00:05Z</time>
</trkpt>
<trkpt lat="35.641453" lon="139.222298">
 <ele>475.4</ele>
 <time>2020-03-24T15:00:05Z</time>
</trkpt>
<trkpt lat="35.641350" lon="139.222395">
 <ele>473.2</ele>
 <time>2020-03-24T15:00:05Z</time>
</trkpt>
<trkpt lat="35.641289" lon="139.222556">
 <ele>469.7</ele>
 <time>2020-03-24T15:00:05Z</time>
</trkpt>
<trkpt lat="35.641247" lon="139.222663">
 <ele>466.7</ele>
 <time>2020-03-24T15:00:05Z</time>
</trkpt>
<trkpt lat="35.641169" lon="139.222706">
 <ele>465.4</ele>
 <time>2020-03-24T15:00:06Z</time>
</trkpt>
<trkpt lat="35.641066" lon="139.222738">
 <ele>464</ele>
 <time>2020-03-24T15:00:06Z</time>
</trkpt>
<trkpt lat="35.640938" lon="139.222899">
 <ele>461.3</ele>
 <time>2020-03-24T15:00:06Z</time>
</trkpt>
<trkpt lat="35.640903" lon="139.223017">
 <ele>459.4</ele>
 <time>2020-03-24T15:00:06Z</time>
</trkpt>
<trkpt lat="35.640817" lon="139.223124">
 <ele>460</ele>
 <time>2020-03-24T15:00:06Z</time>
</trkpt>
<trkpt lat="35.640680" lon="139.223157">
 <ele>460.5</ele>
 <time>2020-03-24T15:00:06Z</time>
</trkpt>
<trkpt lat="35.640586" lon="139.223242">
 <ele>459</ele>
 <time>2020-03-24T15:00:06Z</time>
</trkpt>
<trkpt lat="35.640543" lon="139.223328">
 <ele>457.3</ele>
 <time>2020-03-24T15:00:06Z</time>
</trkpt>
<trkpt lat="35.640517" lon="139.223393">
 <ele>455.1</ele>
 <time>2020-03-24T15:00:06Z</time>
</trkpt>
<trkpt lat="35.640517" lon="139.223489">
 <ele>452.3</ele>
 <time>2020-03-24T15:00:06Z</time>
</trkpt>
<trkpt lat="35.640517" lon="139.223586">
 <ele>449.1</ele>
 <time>2020-03-24T15:00:07Z</time>
</trkpt>
<trkpt lat="35.640500" lon="139.223704">
 <ele>443.4</ele>
 <time>2020-03-24T15:00:07Z</time>
</trkpt>
<trkpt lat="35.640534" lon="139.223790">
 <ele>439.3</ele>
 <time>2020-03-24T15:00:07Z</time>
</trkpt>
<trkpt lat="35.640586" lon="139.223875">
 <ele>434.9</ele>
 <time>2020-03-24T15:00:07Z</time>
</trkpt>
<trkpt lat="35.640577" lon="139.223993">
 <ele>428.3</ele>
 <time>2020-03-24T15:00:07Z</time>
</trkpt>
<trkpt lat="35.640560" lon="139.224058">
 <ele>425.6</ele>
 <time>2020-03-24T15:00:07Z</time>
</trkpt>
<trkpt lat="35.640560" lon="139.224133">
 <ele>419.7</ele>
 <time>2020-03-24T15:00:07Z</time>
</trkpt>
<trkpt lat="35.640560" lon="139.224229">
 <ele>413.8</ele>
 <time>2020-03-24T15:00:07Z</time>
</trkpt>
<trkpt lat="35.640508" lon="139.224337">
 <ele>408.6</ele>
 <time>2020-03-24T15:00:07Z</time>
</trkpt>
<trkpt lat="35.640457" lon="139.224433">
 <ele>405.5</ele>
 <time>2020-03-24T15:00:08Z</time>
</trkpt>
<trkpt lat="35.640465" lon="139.224498">
 <ele>403.9</ele>
 <time>2020-03-24T15:00:08Z</time>
</trkpt>
<trkpt lat="35.640457" lon="139.224637">
 <ele>397.7</ele>
 <time>2020-03-24T15:00:08Z</time>
</trkpt>
<trkpt lat="35.640397" lon="139.224723">
 <ele>393.4</ele>
 <time>2020-03-24T15:00:08Z</time>
</trkpt>
<trkpt lat="35.640337" lon="139.224777">
 <ele>389.6</ele>
 <time>2020-03-24T15:00:08Z</time>
</trkpt>
<trkpt lat="35.640277" lon="139.224798">
 <ele>387.6</ele>
 <time>2020-03-24T15:00:08Z</time>
</trkpt>
<trkpt lat="35.640217" lon="139.224777">
 <ele>386.5</ele>
 <time>2020-03-24T15:00:08Z</time>
</trkpt>
<trkpt lat="35.640148" lon="139.224809">
 <ele>383.9</ele>
 <time>2020-03-24T15:00:08Z</time>
</trkpt>
<trkpt lat="35.640156" lon="139.224895">
 <ele>381.2</ele>
 <time>2020-03-24T15:00:08Z</time>
</trkpt>
<trkpt lat="35.640165" lon="139.225013">
 <ele>377.6</ele>
 <time>2020-03-24T15:00:08Z</time>
</trkpt>
<trkpt lat="35.640088" lon="139.225152">
 <ele>374.6</ele>
 <time>2020-03-24T15:00:09Z</time>
</trkpt>
<trkpt lat="35.640062" lon="139.225174">
 <ele>375.4</ele>
 <time>2020-03-24T15:00:09Z</time>
</trkpt>
<trkpt lat="35.640036" lon="139.225249">
 <ele>373.1</ele>
 <time>2020-03-24T15:00:09Z</time>
</trkpt>
<trkpt lat="35.640011" lon="139.225356">
 <ele>370.3</ele>
 <time>2020-03-24T15:00:09Z</time>
</trkpt>
<trkpt lat="35.639916" lon="139.225420">
 <ele>369.6</ele>
 <time>2020-03-24T15:00:09Z</time>
</trkpt>
<trkpt lat="35.639916" lon="139.225495">
 <ele>364.4</ele>
 <time>2020-03-24T15:00:09Z</time>
</trkpt>
<trkpt lat="35.639916" lon="139.225571">
 <ele>361.4</ele>
 <time>2020-03-24T15:00:09Z</time>
</trkpt>
<trkpt lat="35.639856" lon="139.225592">
 <ele>359.9</ele>
 <time>2020-03-24T15:00:09Z</time>
</trkpt>
<trkpt lat="35.639787" lon="139.225667">
 <ele>352.5</ele>
 <time>2020-03-24T15:00:09Z</time>
</trkpt>
<trkpt lat="35.639693" lon="139.225731">
 <ele>348.5</ele>
 <time>2020-03-24T15:00:10Z</time>
</trkpt>
<trkpt lat="35.639796" lon="139.225817">
 <ele>346.6</ele>
 <time>2020-03-24T15:00:10Z</time>
</trkpt>
<trkpt lat="35.639796" lon="139.225925">
 <ele>345.3</ele>
 <time>2020-03-24T15:00:10Z</time>
</trkpt>
<trkpt lat="35.639719" lon="139.225978">
 <ele>344.5</ele>
 <time>2020-03-24T15:00:10Z</time>
</trkpt>
<trkpt lat="35.639607" lon="139.225957">
 <ele>343.1</ele>
 <time>2020-03-24T15:00:10Z</time>
</trkpt>
<trkpt lat="35.639513" lon="139.225796">
 <ele>341.9</ele>
 <time>2020-03-24T15:00:10Z</time>
</trkpt>
<trkpt lat="35.639418" lon="139.225635">
 <ele>339.9</ele>
 <time>2020-03-24T15:00:10Z</time>
</trkpt>
<trkpt lat="35.639375" lon="139.225495">
 <ele>341.1</ele>
 <time>2020-03-24T15:00:10Z</time>
</trkpt>
<trkpt lat="35.639358" lon="139.225324">
 <ele>339</ele>
 <time>2020-03-24T15:00:10Z</time>
</trkpt>
<trkpt lat="35.639358" lon="139.225216">
 <ele>338.3</ele>
 <time>2020-03-24T15:00:10Z</time>
</trkpt>
<trkpt lat="35.639358" lon="139.225109">
 <ele>338.4</ele>
 <time>2020-03-24T15:00:11Z</time>
</trkpt>
<trkpt lat="35.639272" lon="139.225066">
 <ele>337.2</ele>
 <time>2020-03-24T15:00:11Z</time>
</trkpt>
<trkpt lat="35.639161" lon="139.225120">
 <ele>337.7</ele>
 <time>2020-03-24T15:00:11Z</time>
</trkpt>
<trkpt lat="35.639169" lon="139.225216">
 <ele>335.9</ele>
 <time>2020-03-24T15:00:11Z</time>
</trkpt>
<trkpt lat="35.639169" lon="139.225345">
 <ele>334.3</ele>
 <time>2020-03-24T15:00:11Z</time>
</trkpt>
<trkpt lat="35.639238" lon="139.225474">
 <ele>332.9</ele>
 <time>2020-03-24T15:00:11Z</time>
</trkpt>
<trkpt lat="35.639298" lon="139.225592">
 <ele>331.7</ele>
 <time>2020-03-24T15:00:11Z</time>
</trkpt>
<trkpt lat="35.639384" lon="139.225731">
 <ele>332.2</ele>
 <time>2020-03-24T15:00:11Z</time>
</trkpt>
<trkpt lat="35.639418" lon="139.225860">
 <ele>328.8</ele>
 <time>2020-03-24T15:00:11Z</time>
</trkpt>
<trkpt lat="35.639513" lon="139.226043">
 <ele>330</ele>
 <time>2020-03-24T15:00:12Z</time>
</trkpt>
<trkpt lat="35.639573" lon="139.226311">
 <ele>325.4</ele>
 <time>2020-03-24T15:00:12Z</time>
</trkpt>
<trkpt lat="35.639633" lon="139.226450">
 <ele>323.8</ele>
 <time>2020-03-24T15:00:12Z</time>
</trkpt>
<trkpt lat="35.639779" lon="139.226944">
 <ele>320.2</ele>
 <time>2020-03-24T15:00:12Z</time>
</trkpt>
<trkpt lat="35.639856" lon="139.227019">
 <ele>319.4</ele>
 <time>2020-03-24T15:00:12Z</time>
</trkpt>
<trkpt lat="35.640002" lon="139.227201">
 <ele>316.8</ele>
 <time>2020-03-24T15:00:12Z</time>
</trkpt>
<trkpt lat="35.640045" lon="139.227416">
 <ele>315</ele>
 <time>2020-03-24T15:00:12Z</time>
</trkpt>
<trkpt lat="35.640148" lon="139.227770">
 <ele>312.2</ele>
 <time>2020-03-24T15:00:12Z</time>
</trkpt>
<trkpt lat="35.640208" lon="139.228017">
 <ele>310.8</ele>
 <time>2020-03-24T15:00:12Z</time>
</trkpt>
<trkpt lat="35.640174" lon="139.228178">
 <ele>309.9</ele>
 <time>2020-03-24T15:00:12Z</time>
</trkpt>
<trkpt lat="35.640131" lon="139.228317">
 <ele>308.3</ele>
 <time>2020-03-24T15:00:13Z</time>
</trkpt>
<trkpt lat="35.640105" lon="139.228585">
 <ele>306.9</ele>
 <time>2020-03-24T15:00:13Z</time>
</trkpt>
<trkpt lat="35.640036" lon="139.228854">
 <ele>304.1</ele>
 <time>2020-03-24T15:00:13Z</time>
</trkpt>
<trkpt lat="35.639933" lon="139.229154">
 <ele>301.8</ele>
 <time>2020-03-24T15:00:13Z</time>
</trkpt>
<trkpt lat="35.639873" lon="139.229379">
 <ele>299.8</ele>
 <time>2020-03-24T15:00:13Z</time>
</trkpt>
<trkpt lat="35.639822" lon="139.229690">
 <ele>297.7</ele>
 <time>2020-03-24T15:00:13Z</time>
</trkpt>
<trkpt lat="35.639830" lon="139.229841">
 <ele>298.9</ele>
 <time>2020-03-24T15:00:13Z</time>
</trkpt>
</trkseg>
</trk>
</gpx>

